615VGS Twitter

615vgs @ReigateBeat @metpoliceuk @SurreyFRS @LondonFire @RoyalAirForceUK Many thanks for your support with our LIVEX. Much appreciated.
615vgs 615 Boys (and wag!) good to go! http://t.co/yeznJBWKnx
615vgs Slightly different from your average day at RAF Kenley... Many thanks to all staff and colleagues from partner agencies that attended.
615vgs We're looking for a make-up artist to help us with a Post Crash Management Exercise we're holding at Kenley on... http://t.co/NRbt5U6Tfz

615VGS Facebook

Staff Login


Staff who require login details should contact the MCO.

Join 615 VGS

 

 

615 VGS Partner

bigatmo

Course Photos 2013

KY Aviation Wx

[source: ADDS]
METAR
EGKB 211920Z 22015KT 9999 BKN008 10/08 Q1023 =
TAF
SR / SS: 08:01 / 15:53 UTC (Sunrise/Sunset 2014-12-21)